Location: Chèvreville
(49.1099°N, 2.8495°E)
Time: 06:13:39
(UTC+00:00)

Cosmos 1844 - Visible Passes

Search period start: 24 September 2023 00:00
Search period end: 04 October 2023 00:00
Orbit: 821 x 868 km, 70.9° (Epoch: 23 September)

Date Brightness Start Highest point End Pass type
(mag) Time Alt. Az. Time Alt. Az. Time Alt. Az.
24 Sep 5.5 19:25:06 10° NW 19:30:07 31° WSW 19:35:06 10° SSW visible
25 Sep 5.5 19:10:56 10° NW 19:16:00 32° WSW 19:21:01 10° SSW visible
26 Sep 5.5 18:56:46 10° NW 19:01:53 33° WSW 19:06:58 10° SSW visible
27 Sep 5.5 18:42:37 10° NW 18:47:47 34° WSW 18:52:54 10° SSW visible
28 Sep 5.5 18:28:28 10° NW 18:33:40 35° WSW 18:38:49 10° S visible
29 Sep 5.5 18:14:18 10° NW 18:19:33 36° WSW 18:24:45 10° S visible
30 Sep 5.5 18:00:09 10° NW 18:05:27 37° WSW 18:10:40 10° S visible
